50P/Arend (2007)

Japanese version
Home page
Total 6,336 html files since Dec. 4, 1995
Updated on April 20, 2008

---------------------------------------------------------------------

* Profile

* Pictures

* Orbital Elements

The following orbital elements are taken from MPC 51823:

Epoch 2007 Oct. 27.0 TT = JDT 2454400.5
T 2007 Nov. 1.1826 TT                                   MPC
q   1.924355             (2000.0)            P               Q
n   0.1192532      Peri.   49.0418      +0.7113349      -0.7023468
a   4.087796       Node   355.3368      +0.5048825      +0.5370114
e   0.529244       Incl.   19.1549      +0.4889747      +0.4672555
P   8.26
From 118 observations 1951-2000, mean residual 0".8.  Nongravitational
     parameters A1 = +0.03, A2 = -0.0216.

* Finding Charts

* Magnitudes Graph

        m1 = 13.8 + 5 log d + 5.0 log r

---------------------------------------------------------------------

The orbital elements are published at the MPC Ephemerides and Orbital Elements.
The charts are made with StellaNavigator Ver.2.0 for Windows (AstroArts / ASCII).
The magnitudes graphs are made with Comet for Windows.

---------------------------------------------------------------------

Copyright(C) 1995-2008 Seiichi Yoshida (comet@aerith.net). All rights reserved.